Regional Weather Roundup
Issued by NWS Goodland, KS

Home | Current Version | Previous Version | Graphics & Text | Print | Product List | Glossary On
Versions: 1 2 3 4 5 6 7 8 9 10 11 12 13 14 15 16 17 18 19 20 21 22 23 24 25 26 27 28 29 30 31 32 33 34 35 36 37 38 39 40 41 42 43 44 45 46 47 48 49 50
000
ASUS43 KGLD 260208
RWRGLD

GOODLAND FORECAST AREA HOURLY WEATHER ROUNDUP
NATIONAL WEATHER SERVICE GOODLAND KS
800 PM MDT MON MAY 25 2015

...OFFICIAL OBSERVATIONS...

CITY           SKY/WX    TMP DP  RH WIND       PRES   REMARKS
GOODLAND KS    CLEAR     58  47  66 N15       29.86R
HILL CITY KS   CLOUDY    68  52  56 NW7       29.80R
IMPERIAL NEB   PTCLDY    57  50  77 NW12      29.85R
MCCOOK NEB     PTCLDY    62  49  62 W8        29.81R
AKRON CO       CLOUDY    54  49  83 W5        29.93R
BURLINGTON CO  PTCLDY    60  46  59 N8        29.89S
LIMON CO       LGT RAIN  53  47  79 N6        29.97R
$$

...UNOFFICIAL OBSERVATIONS...

CITY           SKY/WX    TMP DP  RH WIND       PRES   REMARKS
COLBY KS       CLEAR     61  52  72 NW8       29.86R
GOVE KS          N/A     67  32  27 MISG        N/A
LENORA KS        N/A     66  32  28 MISG        N/A
NORTON KS      CLEAR     63  46  55 NW8       29.80S
SHARON SPRINGS   N/A     62  53  72 MISG        N/A
TRENTON NEB      N/A     59  32  36 W12         N/A
KIT CARSON CO    N/A     59  51  75 MISG        N/A
$$



USA.gov is the U.S. government's official web portal to all federal, state and local government web resources and services.